Hamilton, OH

11:57 AM EDT on May 27, 2018 (GMT -0400)
Butler County Regional

Weather History for KHAO - October, 2013

Change the Weather History Date:

Wednesday, October 2, 2013

  Actual Average (WUND) Record (WUND)
Temperature  
Mean Temperature 66 °F -  
Max Temperature 79 °F - - (-1)
Min Temperature 55 °F - - (-1)
Cooling Degree Days 2    
Growing Degree Days 16 (Base 50)    
Moisture  
Dew Point 58 °F    
Average Humidity 91    
Maximum Humidity 100    
Minimum Humidity 68    
Precipitation  
Precipitation 0.00 in - - ()
Sea Level Pressure  
Sea Level Pressure 30.09 in    
Wind  
Wind Speed 0 mph (SSW)    
Max Wind Speed 4 mph    
Max Gust Speed -    
Visibility 3 miles    
Events Fog    
Averages and records for this station are not official NWS values.
T = Trace of Precipitation, MM = Missing Value Source: NWS Daily Summary

Daily Weather History Graph

Daily Weather History Graph

Search for Another Location

Airport or City:

Astronomy

Oct. 02, 2013 Rise Set
Actual Time 7:35 AM EDT 7:18 PM EDT
Civil Twilight 7:08 AM EDT 7:45 PM EDT
Nautical Twilight 6:37 AM EDT 8:16 PM EDT
Astronomical Twilight 6:06 AM EDT 8:47 PM EDT
Moon 5:08 AM EDT (10/2) 5:53 PM EDT (10/2)
Length of Visible Light 12h 36m
Length of Day
11h 43m
Waning Crescent, 6% of the Moon is Illuminated
Oct 2
Waning Crescent
Oct 4
New
Oct 11
First Quarter
Oct 18
Full
Oct 26
Last Quarter

Hourly Weather History & Observations

Time (EDT) Temp. Dew Point Humidity Pressure Visibility Wind Dir Wind Speed Gust Speed Precip Events Conditions
12:10 AM 57.2 °F 55.4 °F 94% 30.07 in 2.5 mi Calm Calm - N/A   Clear
12:21 AM 57.2 °F 55.4 °F 94% 30.07 in 4.0 mi Calm Calm - N/A   Clear
12:35 AM 57.2 °F 55.4 °F 94% 30.07 in 1.8 mi Calm Calm - N/A   Clear
12:50 AM 57.2 °F 55.4 °F 94% 30.07 in 1.2 mi Calm Calm - N/A   Clear
12:53 AM 57.0 °F 55.9 °F 96% 30.07 in 1.2 mi Calm Calm - N/A   Clear
1:05 AM 57.2 °F 55.4 °F 94% 30.07 in 2.0 mi Calm Calm - N/A   Clear
1:09 AM 57.2 °F 55.4 °F 94% 30.07 in 1.2 mi Calm Calm - N/A   Clear
1:23 AM 57.2 °F 55.4 °F 94% 30.07 in 3.0 mi Calm Calm - N/A   Clear
1:39 AM 57.2 °F 55.4 °F 94% 30.07 in 2.0 mi Calm Calm - N/A   Clear
1:53 AM 55.9 °F 55.0 °F 97% 30.07 in 2.0 mi Calm Calm - N/A   Clear
2:06 AM 55.4 °F 53.6 °F 94% 30.08 in 5.0 mi Calm Calm - N/A   Clear
2:29 AM 55.4 °F 55.4 °F 100% 30.08 in 1.5 mi Calm Calm - N/A   Clear
2:39 AM 55.4 °F 55.4 °F 100% 30.08 in 0.8 mi Calm Calm - N/A   Clear
2:50 AM 57.2 °F 55.4 °F 94% 30.08 in 1.8 mi Calm Calm - N/A   Clear
2:53 AM 57.0 °F 55.0 °F 93% 30.08 in 2.5 mi Calm Calm - N/A   Clear
3:01 AM 55.4 °F 55.4 °F 100% 30.08 in 4.0 mi Calm Calm - N/A   Clear
3:15 AM 55.4 °F 55.4 °F 100% 30.08 in 1.8 mi Calm Calm - N/A   Clear
3:27 AM 55.4 °F 55.4 °F 100% 30.08 in 3.0 mi Calm Calm - N/A   Clear
3:50 AM 55.4 °F 55.4 °F 100% 30.08 in 2.5 mi Calm Calm - N/A   Clear
3:53 AM 55.9 °F 55.0 °F 97% 30.07 in 2.5 mi Calm Calm - N/A   Clear
4:01 AM 55.4 °F 55.4 °F 100% 30.08 in 3.0 mi Calm Calm - N/A   Clear
4:07 AM 55.4 °F 55.4 °F 100% 30.08 in 1.8 mi Calm Calm - N/A   Clear
4:15 AM 55.4 °F 53.6 °F 94% 30.08 in 1.5 mi Calm Calm - N/A   Clear
4:18 AM 55.4 °F 53.6 °F 94% 30.08 in 2.0 mi Calm Calm - N/A   Clear
4:42 AM 55.4 °F 53.6 °F 94% 30.08 in 1.5 mi Calm Calm - N/A   Clear
4:53 AM 55.0 °F 54.0 °F 96% 30.08 in 0.5 mi Calm Calm - N/A Fog Fog
5:04 AM 55.4 °F 53.6 °F 94% 30.08 in 1.2 mi Calm Calm - N/A   Partly Cloudy
5:12 AM 55.4 °F 53.6 °F 94% 30.08 in 2.0 mi Calm Calm - N/A   Partly Cloudy
5:24 AM 55.4 °F 53.6 °F 94% 30.09 in 1.2 mi Calm Calm - N/A   Partly Cloudy
5:35 AM 55.4 °F 53.6 °F 94% 30.09 in 3.0 mi Calm Calm - N/A   Partly Cloudy
5:41 AM 55.4 °F 53.6 °F 94% 30.09 in 1.8 mi Calm Calm - N/A   Partly Cloudy
5:43 AM 55.4 °F 53.6 °F 94% 30.09 in 1.0 mi Calm Calm - N/A   Mist
5:50 AM 55.4 °F 53.6 °F 94% 30.09 in 0.5 mi Calm Calm - N/A Fog Fog
5:53 AM 55.0 °F 54.0 °F 96% 30.09 in 0.8 mi Calm Calm - N/A   Mist
5:56 AM 55.4 °F 53.6 °F 94% 30.09 in 1.8 mi Calm Calm - N/A   Partly Cloudy
5:59 AM 55.4 °F 53.6 °F 94% 30.09 in 3.0 mi Calm Calm - N/A   Clear
6:08 AM 55.4 °F 53.6 °F 94% 30.09 in 2.5 mi Calm Calm - N/A   Clear
6:28 AM 55.4 °F 53.6 °F 94% 30.10 in 3.0 mi Calm Calm - N/A   Clear
6:53 AM 55.0 °F 54.0 °F 96% 30.10 in 3.0 mi Calm Calm - N/A   Scattered Clouds
7:02 AM 55.4 °F 55.4 °F 100% 30.11 in 3.0 mi Calm Calm - N/A   Mostly Cloudy
7:53 AM 60.1 °F 59.0 °F 96% 30.12 in 2.0 mi Calm Calm - N/A   Overcast
8:53 AM 63.0 °F 61.0 °F 93% 30.13 in 2.5 mi Calm Calm - N/A   Scattered Clouds
9:00 AM 64.4 °F 60.8 °F 88% 30.13 in 3.0 mi Calm Calm - N/A   Mostly Cloudy
9:53 AM 68.0 °F 64.0 °F 87% 30.13 in 4.0 mi Calm Calm - N/A   Scattered Clouds
10:51 AM 71.6 °F 66.2 °F 83% 30.14 in 6.0 mi Calm Calm - N/A   Haze
10:53 AM 72.0 °F 66.0 °F 81% 30.14 in 6.0 mi Calm Calm - N/A   Haze
11:53 AM 73.0 °F 66.0 °F 79% 30.13 in 7.0 mi Calm Calm - N/A   Overcast
12:53 PM 75.0 °F 66.9 °F 76% 30.12 in 7.0 mi Calm Calm - N/A   Overcast
1:53 PM 75.9 °F 66.9 °F 74% 30.11 in 7.0 mi Calm Calm - N/A   Overcast
2:53 PM 77.0 °F 66.0 °F 69% 30.08 in 6.0 mi Calm Calm - N/A   Haze
3:53 PM 78.1 °F 66.9 °F 68% 30.07 in 7.0 mi Calm Calm - N/A   Overcast
4:38 PM 78.8 °F 68.0 °F 69% 30.07 in 6.0 mi SSW 3.5 mph - N/A   Haze
4:53 PM 78.1 °F 66.9 °F 68% 30.07 in 6.0 mi Calm Calm - N/A   Haze
5:53 PM 77.0 °F 68.0 °F 74% 30.06 in 7.0 mi Calm Calm - N/A   Scattered Clouds
6:53 PM 73.9 °F 66.9 °F 79% 30.06 in 6.0 mi Variable 3.5 mph - N/A   Haze
7:53 PM 70.0 °F 66.9 °F 90% 30.07 in 7.0 mi Calm Calm - N/A   Clear
8:53 PM 68.0 °F 66.0 °F 93% 30.07 in 5.0 mi Calm Calm - N/A   Clear
9:53 PM 64.9 °F 63.0 °F 93% 30.07 in 4.0 mi Calm Calm - N/A   Clear
10:53 PM 64.9 °F 63.0 °F 93% 30.07 in 3.0 mi Calm Calm - N/A   Mostly Cloudy
11:53 PM 64.9 °F 64.0 °F 97% 30.08 in 3.0 mi Calm Calm - N/A   Clear